STARLINK-11252 [DTC]

Last updated on Tue Oct 08 2024 00:02:04 GMT+0000 (Coordinated Universal Time)

1 61051U 24164B 24281.44061346 .00030799 00000+0 19125-3 0 9993 2 61051 53.1565 346.6747 0001656 112.9750 247.1446 15.76756995 4956
UTC large
Height (km)
Speed (km/s)
/
Latitude / Longitude
Inclination (degrees)
Orbital Period (minutes)
Azimuth
Elevation
Range (km)
Doppler Factor

Next 0 passes for location: London (51.5072 / 0.1276)

Sorry there are no passes over London.